BEIDOU-3 M20 (C42)

Last updated on Sat Aug 15 2026 00:03:26 GMT+0000 (Coordinated Universal Time)

1 44865U 19090B 26226.04988951 -.00000037 00000+0 00000+0 0 9997 2 44865 56.6135 60.9144 0013498 311.3883 226.0298 1.86231139 45294
UTC large
Height (km)
Speed (km/s)
/
Latitude / Longitude
Inclination (degrees)
Orbital Period (minutes)
Azimuth
Elevation
Range (km)
Doppler Factor

Next 0 passes for location: London (51.5072 / 0.1276)

No passes found over London.
BEIDOU-3 M20 (C42)